DO5RS-5 Weather Reports


time (UTC)temp
C
wind
direction
speed
KPH
gust
KPH
rain 1hr
cm
rain 24hr
cm
rain mn
cm
humidity
%
barometer
mb
20260901035906 16 0.0 0.0 0.00 0.00 0.00 89 1023.1
20260901034905 16 0.0 0.0 0.00 0.00 0.00 89 1023.1
20260901033904 16 0.0 0.0 0.00 0.00 0.00 89 1023.0
20260901032904 16 0.0 0.0 0.00 0.00 0.00 89 1023.0
20260901031906 16 0.0 0.0 0.00 0.00 0.00 89 1022.8
20260901030905 16 0.0 0.0 0.00 0.00 0.00 90 1022.9
20260901025906 16 0.0 0.0 0.00 0.00 0.00 89 1022.8
20260901024906 17 0.0 0.0 0.00 0.00 0.00 89 1022.7
20260901023906 16 0.0 0.0 0.00 0.00 0.00 88 1022.0
20260901022910 17 0.0 0.0 0.00 0.00 0.00 88 1022.5
20260901020905 16 0.0 0.0 0.00 0.00 0.00 88 1022.4
20260901015905 16 0.0 0.0 0.00 0.00 0.00 88 1022.3
20260901014905 16 0.0 0.0 0.00 0.00 0.00 88 1022.2
20260901013906 17 0.0 0.0 0.00 0.00 0.00 88 1022.2
20260901012905 17 0.0 0.0 0.00 0.00 0.00 88 1022.3
20260901011905 17 0.0 0.0 0.00 0.00 0.00 88 1022.3
20260901010905 16 0.0 0.0 0.00 0.00 0.00 88 1022.2
20260901005905 16 0.0 0.0 0.00 0.00 0.00 88 1022.2
20260901004905 17 0.0 0.0 0.00 0.00 0.00 86 1022.1
20260901003907 17 0.0 0.0 0.00 0.00 0.00 86 1022.0
20260901002906 16 0.0 0.0 0.00 0.00 0.00 86 1022.1
20260901001906 17 0.0 0.0 0.00 0.00 0.00 86 1022.0
20260901000906 17 0.0 0.0 0.00 0.00 0.00 86 1022.0
20260831235904 17 0.0 0.0 0.00 0.00 0.00 87 1021.9
20260831234904 17 0.0 0.0 0.00 0.00 0.00 86 1021.9
20260831233906 17 0.0 0.0 0.00 0.00 0.00 86 1021.8
20260831232905 17 0.0 0.0 0.00 0.00 0.00 86 1022.0
20260831231904 17 0.0 0.0 0.00 0.00 0.00 86 1021.9
20260831230905 17 0.0 0.0 0.00 0.00 0.00 86 1021.9
20260831225906 17 0.0 0.0 0.00 0.00 0.00 87 1022.0
20260831224904 17 0.0 0.0 0.00 0.00 0.00 86 1021.9
20260831223907 17 0.0 0.0 0.00 0.00 0.00 86 1021.8
20260831222906 17 0.0 0.0 0.00 0.00 0.00 86 1021.7
20260831221905 17 0.0 0.0 0.00 0.00 0.00 87 1021.7
20260831220904 17 0.0 0.0 0.00 0.00 0.00 87 1021.7
20260831215904 17 0.0 0.0 0.00 0.00 0.00 87 1021.8
20260831214904 17 0.0 0.0 0.00 0.00 0.00 86 1021.7
20260831213905 17 0.0 0.0 0.00 0.00 0.00 86 1021.6
20260831212905 17 0.0 0.0 0.00 0.00 0.00 87 1021.5
20260831211905 17 0.0 0.0 0.00 0.00 0.00 87 1021.4
20260831210905 17 0.0 0.0 0.00 0.00 0.00 87 1021.3
20260831205905 18 0.0 0.0 0.00 0.00 0.00 87 1021.2
20260831204910 18 0.0 0.0 0.00 0.00 0.00 87 1021.0
20260831200905 18 0.0 0.0 0.00 0.00 0.00 87 1020.5
20260831195909 18 0.0 0.0 0.00 0.00 0.00 87 1020.2
20260831193904 18 0.0 0.0 0.00 0.00 0.00 86 1020.0
20260831192905 18 0.0 0.0 0.00 0.00 0.00 85 1019.8
20260831191906 18 0.0 0.0 0.00 0.00 0.00 85 1019.8
20260831190905 18 0.0 0.0 0.00 0.00 0.00 84 1019.8
20260831185906 18 0.0 0.0 0.00 0.00 0.00 84 1019.7
20260831184907 18 0.0 0.0 0.00 0.00 0.00 84 1019.6
20260831183904 18 0.0 0.0 0.00 0.00 0.00 84 1019.4
20260831182904 18 0.0 0.0 0.00 0.00 0.00 84 1018.8
20260831181905 18 0.0 0.0 0.00 0.00 0.00 84 1018.9
20260831180905 18 0.0 0.0 0.00 0.00 0.00 82 1018.7
20260831175905 18 0.0 0.0 0.00 0.00 0.00 82 1018.6
20260831174904 18 0.0 0.0 0.00 0.00 0.00 81 1018.5
20260831173905 18 0.0 0.0 0.00 0.00 0.00 81 1018.4
20260831172905 19 0.0 0.0 0.00 0.00 0.00 81 1018.4
20260831171906 18 0.0 0.0 0.00 0.00 0.00 80 1018.4
20260831170907 18 0.0 0.0 0.00 0.00 0.00 80 1018.3
20260831165905 19 0.0 0.0 0.00 0.00 0.00 79 1018.0
20260831164905 19 0.0 0.0 0.00 0.00 0.00 79 1017.7
20260831163906 18 0.0 0.0 0.00 0.00 0.00 79 1017.9
20260831162907 18 0.0 0.0 0.00 0.00 0.00 78 1018.0
20260831161907 20 0.0 0.0 0.00 0.00 0.00 77 1017.9
20260831160911 20 0.0 0.0 0.00 0.00 0.00 75 1017.1
20260831154904 20 0.0 0.0 0.00 0.00 0.00 72 1016.2
20260831153908 20 0.0 0.0 0.00 0.00 0.00 70 1016.1
20260831151904 21 0.0 0.0 0.00 0.00 0.00 67 1016.5
20260831150904 21 0.0 0.0 0.00 0.00 0.00 67 1016.4
20260831145906 22 0.0 0.0 0.00 0.00 0.00 60 1016.3
20260831144906 22 0.0 0.0 0.00 0.00 0.00 59 1016.1
20260831143906 23 0.0 0.0 0.00 0.00 0.00 59 1016.0
20260831142910 23 0.0 0.0 0.00 0.00 0.00 58 1015.9
20260831140910 22 0.0 0.0 0.00 0.00 0.00 57 1015.7
20260831134909 24 0.0 0.0 0.00 0.00 0.00 50 1015.3
20260831132906 25 0.0 0.0 0.00 0.00 0.00 49 1015.5
20260831131904 23 0.0 0.0 0.00 0.00 0.00 50 1015.6
20260831130904 22 0.0 0.0 0.00 0.00 0.00 51 1016.1
20260831125904 23 0.0 0.0 0.00 0.00 0.00 51 1015.8
20260831124905 23 0.0 0.0 0.00 0.00 0.00 52 1015.9
20260831123907 22 0.0 0.0 0.00 0.00 0.00 56 1016.2
20260831122910 22 0.0 0.0 0.00 0.00 0.00 59 1016.0
20260831120915 21 0.0 0.0 0.00 0.00 0.00 64 1016.3
20260831115905 21 0.0 0.0 0.00 0.00 0.00 61 1016.3
20260831114905 22 0.0 0.0 0.00 0.00 0.00 63 1016.1
20260831113907 21 0.0 0.0 0.00 0.00 0.00 65 1016.3
20260831112906 21 0.0 0.0 0.00 0.00 0.00 69 1016.5
20260831111904 21 0.0 0.0 0.00 0.00 0.00 72 1016.5
20260831110909 20 0.0 0.0 0.00 0.00 0.00 74 1016.6
20260831104904 21 0.0 0.0 0.00 0.00 0.00 68 1016.6
20260831103905 21 0.0 0.0 0.00 0.00 0.00 69 1016.4
20260831102906 21 0.0 0.0 0.00 0.00 0.00 67 1016.5
20260831101904 20 0.0 0.0 0.00 0.00 0.00 70 1016.5
20260831100904 20 0.0 0.0 0.00 0.00 0.00 70 1016.8
20260831095904 20 0.0 0.0 0.00 0.00 0.00 69 1016.7
20260831094904 20 0.0 0.0 0.00 0.00 0.00 70 1016.9
20260831093905 20 0.0 0.0 0.00 0.00 0.00 70 1017.0
20260831092910 20 0.0 0.0 0.00 0.00 0.00 73 1016.8
20260831090909 20 0.0 0.0 0.00 0.00 0.00 73 1016.8
20260831083905 19 0.0 0.0 0.00 0.00 0.00 78 1016.8
20260831082905 19 0.0 0.0 0.00 0.00 0.00 82 1016.6
20260831081904 19 0.0 0.0 0.00 0.00 0.00 84 1016.7
20260831080908 19 0.0 0.0 0.00 0.00 0.00 86 1016.7
20260831074904 18 0.0 0.0 0.00 0.00 0.00 88 1016.7
20260831073909 18 0.0 0.0 0.00 0.00 0.00 89 1016.8
20260831070906 18 0.0 0.0 0.00 0.00 0.00 95 1016.7
20260831065904 18 0.0 0.0 0.00 0.00 0.00 95 1016.7
20260831064904 18 0.0 0.0 0.00 0.00 0.00 97 1016.6
20260831063909 18 0.0 0.0 0.00 0.00 0.00 97 1016.6
20260831061905 18 0.0 0.0 0.00 0.00 0.00 94 1016.6
20260831060906 18 0.0 0.0 0.00 0.00 0.00 93 1016.4
20260831055906 18 0.0 0.0 0.00 0.00 0.00 94 1016.3
20260831054904 18 0.0 0.0 0.00 0.00 0.00 94 1016.3
20260831053904 18 0.0 0.0 0.00 0.00 0.00 94 1016.2
20260831052904 18 0.0 0.0 0.00 0.00 0.00 92 1016.0
20260831051905 18 0.0 0.0 0.00 0.00 0.00 92 1016.1
20260831050905 18 0.0 0.0 0.00 0.00 0.00 91 1015.9
20260831045906 18 0.0 0.0 0.00 0.00 0.00 92 1015.9
20260831044906 18 0.0 0.0 0.00 0.00 0.00 91 1016.0
20260831043905 18 0.0 0.0 0.00 0.00 0.00 91 1016.0
20260831042905 18 0.0 0.0 0.00 0.00 0.00 90 1015.7
20260831041905 18 0.0 0.0 0.00 0.00 0.00 88 1015.6
20260831040905 18 0.0 0.0 0.00 0.00 0.00 88 1015.7